SCP
-0 -0 0 0 -0 -0 -0 -0 -0 -0 -0 0 0 0 0 -0 -0 -0 -0 -0 -0 0 0 0 -0 -0 -0 -0 -0 -0 -0 0 -0
-0 0 0 0 0 0 0 -0 -0 -0 -0 0 0 0 0 0 -0 -0 -0 0 -0 0 0 0 0 -0 -0 -0 -0 -0 -0 0 0
0 0 0 0 0 0 0 0 0 -0 -0 -0 0 0 0 0 0 -0 -0 0 0 0 -0 0 0 0 -0 -0 -0 -0 -0 0 0
0 0 0 0 0 0 0 0 0 0 0 -0 -0 0 0 0 0 -0 -0 -0 0 0 -0 -0 0 0 0 -0 -0 -0 -0 -0 0
0 0 -0 -0 0 0 0 0 0 0 0 0 -0 0 0 0 0 0 -0 -0 -0 0 0 0 0 0 0 0 0 -0 -0 -0 -0
0 0 0 1 0 0 1 0 1 0 0 0 0 0 0 0 0 0 -0 -0 -0 0 0 0 1 0 0 0 0 0 0 0 -0
0 0 0 0 0 0 0 0 0 0 0 0 0 0 0 0 0 0 0 0 0 0 0 0 0 0 0 0 0 0 0 0 0
0 0 0 0 0 0 0 0 0 0 1 0 0 0 0 0 0 0 0 0 0 0 0 0 0 1 1 0 0 0 0 0 0
0 0 0 0 0 0 0 0 -0 0 0 0 1 1 0 0 0 0 0 0 0 0 0 0 0 0 0 0 0 0 0 0 0
0 0 0 0 0 0 0 -0 0 -0 0 0 1 1 1 1 0 0 0 1 0 0 0 0 0 0 0 0 0 0 0 0 0
0 0 0 0 0 0 0 -0 -0 0 0 0 1 1 1 1 0 0 0 1 1 1 0 0 0 0 0 0 1 0 0 0 0
0 0 0 0 0 0 0 0 0 0 0 0 0 1 1 1 1 1 0 0 1 1 1 0 0 0 1 0 0 0 0 0 0
0 0 0 0 -0 0 0 0 0 0 0 0 0 0 0 1 1 0 1 1 1 1 1 1 1 0 0 1 1 1 0 0 0
0 0 0 0 0 -0 0 0 0 0 0 0 0 -0 0 0 0 0 1 2 2 2 2 1 1 1 1 0 1 1 0 0 0
0 0 0 0 -0 -0 -0 -0 -0 -0 0 0 0 0 0 -0 -0 1 1 1 2 2 2 2 1 1 1 1 1 1 0 0 0
0 0 0 -0 -0 -0 -0 -0 -0 -0 0 0 0 0 0 0 0 1 1 1 2 2 2 2 2 2 1 1 2 1 0 0 0
0 0 -0 -0 -0 -0 -0 -0 -0 -0 -0 0 0 0 0 0 0 1 2 2 2 2 2 2 2 2 2 1 2 1 2 0 0
-0 0 -0 -0 -0 -0 -0 -0 -0 -0 -0 -0 0 0 0 0 1 1 3 2 2 2 1 2 3 3 2 2 2 2 2 2 2
-0 0 0 0 -0 0 -0 0 -0 -0 -0 -0 0 0 0 0 0 1 3 3 4 0 2 1 2 3 3 2 1 2 1 1 2
0 0 0 0 0 -0 0 0 -0 0 -0 0 0 0 0 0 0 0 3 4 4 4 1 0 0 1 2 2 2 1 1 1 1
Wind_Speed_500mb
79 81 92 97 106 82 103 105 107 100 92 83 78 76 77 70 74 71 65 55 55 48 47 33 23 25 26 23 23 25 29 30 34
80 88 72 91 89 96 99 106 107 106 98 91 84 79 77 78 76 76 73 63 48 53 50 34 33 27 27 25 19 23 24 28 31
76 91 62 78 92 100 98 104 104 103 101 98 90 83 80 80 80 81 79 69 57 58 47 41 39 38 33 32 26 21 23 27 29
90 84 83 88 92 102 109 95 99 105 105 104 98 91 84 81 85 83 84 79 69 55 52 50 44 37 39 43 36 27 28 29 26
37 90 76 100 98 101 108 115 103 102 108 107 104 94 88 83 85 88 84 88 82 68 65 57 54 51 42 50 46 35 30 34 35
19 69 69 82 95 110 102 87 95 96 101 105 106 99 90 85 84 91 93 88 89 83 73 69 69 63 57 46 48 43 33 32 33
58 29 37 53 49 71 78 68 90 84 85 95 102 105 94 88 86 89 93 94 90 92 86 79 70 67 64 59 53 49 39 32 32
65 52 17 3 27 35 41 48 66 94 81 84 94 105 99 96 89 88 86 89 96 94 93 91 82 76 71 64 60 59 54 49 42
53 74 50 20 20 42 60 60 39 95 86 73 87 98 100 93 93 95 94 87 87 91 100 98 94 88 81 78 72 68 63 57 53
31 32 45 53 64 51 46 94 74 42 55 59 72 80 88 94 90 98 97 91 86 89 88 94 105 100 94 91 88 86 80 72 66
36 22 26 38 50 41 46 23 46 48 51 59 70 73 77 86 93 95 93 90 82 84 85 85 92 100 101 97 93 88 85 79 72
49 39 36 29 28 35 26 18 14 11 19 50 59 83 75 73 89 100 94 89 78 76 79 79 81 88 92 95 93 87 80 75 75
52 42 36 26 22 17 23 28 24 20 15 15 50 62 63 70 80 91 93 91 80 76 77 73 73 79 85 87 89 86 79 72 71
38 34 33 29 25 26 23 36 40 36 35 25 41 64 70 64 63 96 111 102 88 84 82 78 74 74 75 78 84 85 82 77 75
43 42 41 35 32 33 31 33 42 40 37 35 37 51 57 66 75 89 98 102 99 92 88 86 82 77 75 75 75 73 73 73 75
44 35 36 28 27 35 42 46 47 45 46 45 45 35 42 62 69 84 86 94 102 95 93 93 91 86 83 80 76 72 70 68 67
38 33 35 38 37 46 53 57 51 41 43 43 45 44 36 48 51 71 80 89 95 96 95 99 97 93 88 82 77 75 72 69 66
34 38 32 38 43 47 54 53 48 36 34 41 41 38 40 42 54 61 72 88 92 93 94 94 92 93 84 79 79 74 68 68 63
44 40 32 35 35 39 48 38 47 39 34 38 43 37 33 35 45 59 67 82 92 90 90 90 84 82 77 69 65 63 61 55 58
36 38 40 37 40 43 37 34 42 38 34 33 36 40 35 35 35 48 63 78 88 87 85 85 80 79 75 70 62 57 53 53 48
Wind_Direction_500mb
211 209 201 197 197 199 205 208 208 210 212 215 219 222 221 216 210 204 203 210 216 217 214 221 215 213 204 204 198 200 205 209 205
210 215 199 207 204 198 208 212 212 212 214 216 220 223 225 221 215 210 207 209 217 212 219 221 218 195 186 194 201 209 208 199 210
231 220 212 208 199 201 207 215 216 216 219 219 222 225 228 227 221 214 209 210 213 213 213 214 210 213 215 213 214 218 221 216 207
237 223 210 202 200 202 201 212 217 220 219 220 222 225 228 230 227 219 215 213 213 215 210 215 215 217 231 229 225 230 230 223 218
300 219 212 203 198 198 206 210 215 221 222 222 225 226 227 230 230 226 218 216 214 214 216 215 222 227 238 228 226 232 236 228 223
327 198 202 203 196 196 200 207 206 215 223 227 228 225 227 230 230 227 224 220 219 218 219 221 226 231 231 222 224 230 235 233 230
39 80 157 178 182 194 208 206 207 211 218 229 231 231 228 230 232 230 228 227 223 223 222 222 225 230 234 232 230 234 235 239 243
40 37 38 349 164 194 203 220 219 210 212 225 230 232 232 233 234 234 231 230 230 228 227 228 229 230 233 234 233 238 241 246 250
36 39 59 65 10 338 272 253 281 228 214 223 229 233 235 239 237 236 235 233 232 233 232 231 230 232 233 235 237 241 245 250 254
57 39 34 19 15 354 327 228 247 247 223 221 222 232 239 239 241 240 236 235 234 234 234 234 235 235 235 235 237 242 247 251 254
82 24 355 344 358 26 21 271 276 259 252 224 216 226 232 239 241 241 238 234 234 236 236 233 233 236 238 238 239 241 245 248 251
22 32 46 12 3 351 10 53 203 256 248 233 236 228 226 236 240 242 239 235 235 235 238 238 234 234 238 238 241 243 244 244 246
21 22 36 51 30 14 349 0 11 355 303 240 235 231 226 228 238 240 239 241 239 238 238 242 239 237 238 241 243 244 245 245 246
13 6 12 30 22 5 345 344 349 349 343 303 250 251 223 223 241 243 240 247 243 241 240 240 241 240 240 242 244 245 247 247 247
343 352 351 1 352 328 336 331 330 326 321 316 282 259 239 248 250 242 242 243 245 242 241 241 241 242 243 244 245 247 246 247 247
319 328 327 336 336 317 333 335 326 314 310 310 302 301 252 246 250 238 241 241 242 241 241 241 241 241 243 247 248 249 249 248 247
293 295 302 305 313 324 324 330 328 306 300 303 299 298 287 252 252 237 237 240 242 242 239 239 239 240 243 246 248 250 251 249 247
256 268 275 286 294 308 308 328 320 308 298 299 298 295 291 277 247 244 236 239 239 242 245 243 243 243 246 248 249 251 252 252 250
241 243 254 264 281 290 301 307 300 310 304 303 305 300 291 278 245 233 238 236 237 240 246 247 247 249 252 257 259 262 262 260 262
225 234 236 258 272 280 278 288 291 298 303 294 295 299 290 284 259 233 231 236 236 237 238 239 242 245 249 254 259 261 262 262 266
Wind_Speed_850mb
79 81 92 97 106 82 103 105 107 100 92 83 78 76 77 70 74 71 65 55 55 48 47 33 23 25 26 23 23 25 29 30 34
80 88 72 91 89 96 99 106 107 106 98 91 84 79 77 78 76 76 73 63 48 53 50 34 33 27 27 25 19 23 24 28 31
76 91 62 78 92 100 98 104 104 103 101 98 90 83 80 80 80 81 79 69 57 58 47 41 39 38 33 32 26 21 23 27 29
90 84 83 88 92 102 109 95 99 105 105 104 98 91 84 81 85 83 84 79 69 55 52 50 44 37 39 43 36 27 28 29 26
37 90 76 100 98 101 108 115 103 102 108 107 104 94 88 83 85 88 84 88 82 68 65 57 54 51 42 50 46 35 30 34 35
19 69 69 82 95 110 102 87 95 96 101 105 106 99 90 85 84 91 93 88 89 83 73 69 69 63 57 46 48 43 33 32 33
58 29 37 53 49 71 78 68 90 84 85 95 102 105 94 88 86 89 93 94 90 92 86 79 70 67 64 59 53 49 39 32 32
65 52 17 3 27 35 41 48 66 94 81 84 94 105 99 96 89 88 86 89 96 94 93 91 82 76 71 64 60 59 54 49 42
53 74 50 20 20 42 60 60 39 95 86 73 87 98 100 93 93 95 94 87 87 91 100 98 94 88 81 78 72 68 63 57 53
31 32 45 53 64 51 46 94 74 42 55 59 72 80 88 94 90 98 97 91 86 89 88 94 105 100 94 91 88 86 80 72 66
36 22 26 38 50 41 46 23 46 48 51 59 70 73 77 86 93 95 93 90 82 84 85 85 92 100 101 97 93 88 85 79 72
49 39 36 29 28 35 26 18 14 11 19 50 59 83 75 73 89 100 94 89 78 76 79 79 81 88 92 95 93 87 80 75 75
52 42 36 26 22 17 23 28 24 20 15 15 50 62 63 70 80 91 93 91 80 76 77 73 73 79 85 87 89 86 79 72 71
38 34 33 29 25 26 23 36 40 36 35 25 41 64 70 64 63 96 111 102 88 84 82 78 74 74 75 78 84 85 82 77 75
43 42 41 35 32 33 31 33 42 40 37 35 37 51 57 66 75 89 98 102 99 92 88 86 82 77 75 75 75 73 73 73 75
44 35 36 28 27 35 42 46 47 45 46 45 45 35 42 62 69 84 86 94 102 95 93 93 91 86 83 80 76 72 70 68 67
38 33 35 38 37 46 53 57 51 41 43 43 45 44 36 48 51 71 80 89 95 96 95 99 97 93 88 82 77 75 72 69 66
34 38 32 38 43 47 54 53 48 36 34 41 41 38 40 42 54 61 72 88 92 93 94 94 92 93 84 79 79 74 68 68 63
44 40 32 35 35 39 48 38 47 39 34 38 43 37 33 35 45 59 67 82 92 90 90 90 84 82 77 69 65 63 61 55 58
36 38 40 37 40 43 37 34 42 38 34 33 36 40 35 35 35 48 63 78 88 87 85 85 80 79 75 70 62 57 53 53 48
Wind_Direction_850mb
211 209 201 197 197 199 205 208 208 210 212 215 219 222 221 216 210 204 203 210 216 217 214 221 215 213 204 204 198 200 205 209 205
210 215 199 207 204 198 208 212 212 212 214 216 220 223 225 221 215 210 207 209 217 212 219 221 218 195 186 194 201 209 208 199 210
231 220 212 208 199 201 207 215 216 216 219 219 222 225 228 227 221 214 209 210 213 213 213 214 210 213 215 213 214 218 221 216 207
237 223 210 202 200 202 201 212 217 220 219 220 222 225 228 230 227 219 215 213 213 215 210 215 215 217 231 229 225 230 230 223 218
300 219 212 203 198 198 206 210 215 221 222 222 225 226 227 230 230 226 218 216 214 214 216 215 222 227 238 228 226 232 236 228 223
327 198 202 203 196 196 200 207 206 215 223 227 228 225 227 230 230 227 224 220 219 218 219 221 226 231 231 222 224 230 235 233 230
39 80 157 178 182 194 208 206 207 211 218 229 231 231 228 230 232 230 228 227 223 223 222 222 225 230 234 232 230 234 235 239 243
40 37 38 349 164 194 203 220 219 210 212 225 230 232 232 233 234 234 231 230 230 228 227 228 229 230 233 234 233 238 241 246 250
36 39 59 65 10 338 272 253 281 228 214 223 229 233 235 239 237 236 235 233 232 233 232 231 230 232 233 235 237 241 245 250 254
57 39 34 19 15 354 327 228 247 247 223 221 222 232 239 239 241 240 236 235 234 234 234 234 235 235 235 235 237 242 247 251 254
82 24 355 344 358 26 21 271 276 259 252 224 216 226 232 239 241 241 238 234 234 236 236 233 233 236 238 238 239 241 245 248 251
22 32 46 12 3 351 10 53 203 256 248 233 236 228 226 236 240 242 239 235 235 235 238 238 234 234 238 238 241 243 244 244 246
21 22 36 51 30 14 349 0 11 355 303 240 235 231 226 228 238 240 239 241 239 238 238 242 239 237 238 241 243 244 245 245 246
13 6 12 30 22 5 345 344 349 349 343 303 250 251 223 223 241 243 240 247 243 241 240 240 241 240 240 242 244 245 247 247 247
343 352 351 1 352 328 336 331 330 326 321 316 282 259 239 248 250 242 242 243 245 242 241 241 241 242 243 244 245 247 246 247 247
319 328 327 336 336 317 333 335 326 314 310 310 302 301 252 246 250 238 241 241 242 241 241 241 241 241 243 247 248 249 249 248 247
293 295 302 305 313 324 324 330 328 306 300 303 299 298 287 252 252 237 237 240 242 242 239 239 239 240 243 246 248 250 251 249 247
256 268 275 286 294 308 308 328 320 308 298 299 298 295 291 277 247 244 236 239 239 242 245 243 243 243 246 248 249 251 252 252 250
241 243 254 264 281 290 301 307 300 310 304 303 305 300 291 278 245 233 238 236 237 240 246 247 247 249 252 257 259 262 262 260 262
225 234 236 258 272 280 278 288 291 298 303 294 295 299 290 284 259 233 231 236 236 237 238 239 242 245 249 254 259 261 262 262 266